Location: Grand Rapids
(42.9630°N, 85.6680°W)
Time: 07:16:37
(UTC-04:00)

Tiros 1 - Pass Details

Date: 23 April 2025
Orbit: 620 x 652 km, 48.4° (Epoch: 13 May)

Event Time Altitude Azimuth Distance (km) Brightness Sun altitude
Exits shadow 04:27:44 30° 151° (SSE) 1,166 8.3 -22.6°
Maximum altitude 04:28:12 30° 139° (SE) 1,151 8.3 -22.5°
Drops below altitude 10° 04:32:20 10° 79° (ENE) 2,055 10.5 -22.0°
Sets 04:34:53 0° 69° (ENE) 2,969 11.7 -21.6°
